Regional Weather Roundup
Issued by NWS

Home | Current Version | Previous Version | Graphics & Text | Print | Product List | Glossary On
Versions: 1 2 3 4 5 6 7 8 9 10 11 12 13 14 15 16 17 18 19 20 21 22 23 24 25 26 27 28 29 30 31 32 33 34 35 36 37 38 39 40 41 42 43 44 45 46 47 48 49 50
000
ASUS45 KABQ 230210
RWRNM
NEW MEXICO REGIONAL WEATHER ROUNDUP
NATIONAL WEATHER SERVICE ALBUQUERQUE NM
800 PM MDT WED MAR 22 2017

NOTE: "FAIR" MEANS FEW OR NO CLOUDS BELOW 12,000 FEET AGL WITH NO
       SIGNIFICANT WEATHER OR OBSTRUCTIONS TO VISION.

      THIS PRODUCT IS RELEASED AS TWO VERSIONS.  ONE VERSION NEAR
      THE TOP OF THE HOUR CONTAINING PRELIMINARY DATA FROM ALBUQUERQUE
      AND OTHER STATIONS.  A FINAL VERSION WITH ADDITIONAL DATA IS
      ISSUED ABOUT 10 MINUTES AFTER THE HOUR.

NMZ501-503-504-510>518-230300-
NORTHWEST PLATEAU/NORTHCENTRAL MOUNTAINS

CITY           SKY/WX    TMP DP  RH WIND       PRES   REMARKS
FARMINGTON     FAIR      64  14  14 SW9       29.87F
LOS ALAMOS     FAIR      66  10  11 S14       30.01S
SANTA FE       FAIR      70   7   8 S16G25    29.96S
TAOS             N/A     59  16  18 E12       30.01S
ANGEL FIRE     FAIR      54  32  43 SW6       30.11S

$$
NMZ402-403-502-505>509-230300-
WESTCENTRAL MOUNTAINS/SOUTHWEST MOUNTAINS

CITY           SKY/WX    TMP DP  RH WIND       PRES   REMARKS
GALLUP         FAIR      60  14  16 SW8       29.97F
GRANTS         FAIR      60  17  19 W8        30.01S
SILVER CITY    FAIR      69  17  13 SW10      30.00S

$$
NMZ407-409-411-412-230300-
SOUTHERN DESERTS

CITY           SKY/WX    TMP DP  RH WIND       PRES   REMARKS
DEMING         FAIR      77  18  11 SW12      29.94R
LAS CRUCES     FAIR      77   8   7 SW12      29.95R
HOLLOMAN AFB   FAIR      75  10   8 S8        29.94S
ALAMOGORDO     FAIR      70  14  11 S6        29.92F
T OR C         FAIR      76  16  10 SW20      29.92S

$$
NMZ519>523-230300-
CENTRAL VALLEYS/CENTRAL HIGHLANDS

CITY           SKY/WX    TMP DP  RH WIND       PRES   REMARKS
ALBUQUERQUE    FAIR      74  11   9 S17G25    29.93R
DOUBLE EAGLE   MOCLDY    63  14  15 S9        29.95R
MORIARTY ARPT  FAIR      67  11  11 S13       30.00S
CLINES CORNERS FAIR      63  11  13 S17       30.06S
BELEN          FAIR      69  15  12 S14       29.93R
SOCORRO        FAIR      75  14  10 S17G23    29.91S

$$
NMZ524>526-539-540-230300-
SOUTHCENTRAL MOUNTAINS

CITY           SKY/WX    TMP DP  RH WIND       PRES   REMARKS
RUIDOSO        FAIR      63   7  11 S10       30.11S

$$
NMZ527>531-230300-
NORTHEAST HIGHLANDS/NORTHEAST PLAINS

CITY           SKY/WX    TMP DP  RH WIND       PRES   REMARKS
LAS VEGAS      FAIR      62  32  32 S21       30.03S
RATON          FAIR      58  36  43 S12G17    30.00R
CLAYTON        FAIR      61  46  57 SE13      29.97S

$$
NMZ532>537-230300-
EASTCENTRAL PLAINS

CITY           SKY/WX    TMP DP  RH WIND       PRES   REMARKS
SANTA ROSA     FAIR      71  35  26 S13       29.93S
TUCUMCARI      FAIR      69  46  43 SE9       29.92R
CANNON AFB     FAIR      65  50  58 SE10      29.97F
CLOVIS AIRPORT FAIR      66  46  48 SE13      29.97F

$$
NMZ028-029-538-230300-
SOUTHEAST PLAINS

CITY           SKY/WX    TMP DP  RH WIND       PRES   REMARKS
ROSWELL        FAIR      74  45  35 SE7       29.89
ARTESIA        FAIR      77  43  29 S6        29.88S
CARLSBAD       FAIR      84  35  17 SE14      29.85F
HOBBS          FAIR      77  46  33 SE15G21   29.95R


$$




USA.gov is the U.S. government's official web portal to all federal, state and local government web resources and services.